Location: Unspecified
(0.0000°N, 0.0000°E)
Time: 12:35:31
(UTC+00:00)

JUGNU - Pass Details

Date: 11 December 2017
Orbit: 837 x 864 km, 20.0° (Epoch: 20 January)

Event Time Altitude Azimuth Distance (km) Brightness Sun altitude
Rises 20:11:07 0° 223° (SW) 3,392 ? -31.3°
Reaches altitude 10° 20:15:41 10° 192° (SSW) 2,450 ? -32.3°
Maximum altitude 20:17:40 12° 172° (S) 2,330 ? -32.8°
Enters shadow 20:18:34 11° 162° (SSE) 2,354 ? -33.0°
